Regional Weather Roundup
Issued by NWS

Home | Current Version | Previous Version | Graphics & Text | Print | Product List | Glossary Off
Versions: 1 2 3 4 5 6 7 8 9 10 11 12 13 14 15 16 17 18 19 20 21 22 23 24 25 26 27 28 29 30 31 32 33 34 35 36 37 38 39 40 41 42 43 44 45 46 47 48 49 50

000
ASUS43 KDMX 041803
RWRIA

WEATHER ROUNDUP FOR IOWA
NATIONAL WEATHER SERVICE DES MOINES IA
100 PM CDT WED MAY 04 2016

NOTE: "FAIR" INDICATES FEW OR NO CLOUDS BELOW 12,000 FEET WITH NO
SIGNIFICANT WEATHER AND/OR OBSTRUCTIONS TO VISIBILITY.

* - THESE STATIONS ARE NOT NWS STATIONS...THUS NOT UNDER NWS
QUALITY CONTROL.  THEY ALSO DO NOT REPORT WEATHER SUCH
AS PRECIPITATION OR FOG.

IAZ001>003-012>014-020>022-031>034-043>046-041900-
   NORTHWEST IOWA

CITY           SKY/WX    TMP DP  RH WIND       PRES   REMARKS
CARROLL *      SUNNY     61  37  41 N15G23    30.03S
CHEROKEE *     SUNNY     61  36  39 N15G23    30.06S
DENISON *      SUNNY     63  36  36 N16G24    30.03S
LE MARS *      SUNNY     63  37  39 N13G21    30.08S
ORANGE CITY *  SUNNY     61  37  41 N10G20    30.07S
SHELDON *      SUNNY     61  36  39 NW18      30.05F
SIOUX CITY     SUNNY     66  39  37 N13G20    30.07F
6HR MIN TEMP:  44; 6HR MAX TEMP:  66;

SPENCER        SUNNY     61  34  36 NW18G26   30.04F
6HR MIN TEMP:  44; 6HR MAX TEMP:  61;

STORM LAKE *     N/A     59  34  38 N18       30.05S
$$

IAZ055>058-069>071-079>083-090>094-041900-
   SOUTHWEST IOWA

CITY           SKY/WX    TMP DP  RH WIND       PRES   REMARKS
ATLANTIC *     SUNNY     63  37  39 NW15G26   30.03F
AUDUBON *      SUNNY     61  36  39 N13G23    30.04F
CLARINDA *       N/A     64  39  39 MISG      30.03F
COUNCIL BLFS * SUNNY     63  41  45 NW15      30.05S
CRESTON *      SUNNY     61  37  41 NW21      30.01F
HARLAN  *      SUNNY     63  34  34 N17       30.06F
LAMONI         SUNNY     63  39  41 N16G26    29.98S
6HR MIN TEMP:  49; 6HR MAX TEMP:  63;

RED OAK *      SUNNY     66  39  37 N10G21    30.03F
SHENANDOAH *   SUNNY     66  37  34 N18       30.04S
$$

IAZ047>049-059>061-072>074-084-041900-
   CENTRAL IOWA

CITY           SKY/WX    TMP DP  RH WIND       PRES   REMARKS
AMES           SUNNY     62  35  36 NW20G29   29.98F
6HR MIN TEMP:  47; 6HR MAX TEMP:  63;

ANKENY *       SUNNY     61  36  39 N12G25    29.98F
BOONE *        SUNNY     61  36  39 N17G29    29.98F
CHARITON *     SUNNY     61  37  41 N17G28    29.97S
DES MOINES     MOSUNNY   63  31  30 N18       29.99S
6HR MIN TEMP:  51; 6HR MAX TEMP:  63;

GRINNELL*      SUNNY     61  32  34 NW17G28   29.96F
KNOXVILLE *    SUNNY     61  34  36 N16G24    29.96S
MARSHALLTOWN   SUNNY     60  34  37 NW17G29   29.95F
6HR MIN TEMP:  48; 6HR MAX TEMP:  61;

NEWTON *       SUNNY     61  36  39 N21G28    29.96F
PERRY *          N/A     63  34  34 N16       30.01F
$$

IAZ004>006-015-016-023>025-035-036-041900-
   NORTH CENTRAL IOWA

CITY           SKY/WX    TMP DP  RH WIND       PRES   REMARKS
ALGONA *       SUNNY     61  32  33 N18G25    30.01F
CLARION *      SUNNY     61  30  31 N17G33    29.99F
ESTHERVILLE    SUNNY     60  36  40 NW18G28   30.03S
6HR MIN TEMP:  43; 6HR MAX TEMP:  60;

FORT DODGE *   SUNNY     61  36  39 NW12G25   30.02S
MASON CITY     SUNNY     61  32  33 N20G33    29.98F
6HR MIN TEMP:  45; 6HR MAX TEMP:  62;

FOREST CITY *  SUNNY     59  32  36 N14G29    29.99S
WEBSTER CITY * SUNNY     63  32  31 N23G30    29.97F
IOWA FALLS *     N/A     62  32  32 N18G29    29.97F
$$

IAZ007>011-017>019-026>030-037>042-050>054-066-041900-
   NORTHEAST IOWA

CITY           SKY/WX    TMP DP  RH WIND       PRES   REMARKS
CEDAR RAPIDS   MOSUNNY   60  37  42 N18G35    29.90F
6HR MIN TEMP:  48; 6HR MAX TEMP:  60;

CHARLES CITY * SUNNY     61  30  31 NW23G29   29.95F
CLINTON *      CLOUDY    56  40  55 N22       29.86F
DECORAH *      MOSUNNY   57  34  41 NW22G33   29.90F
DUBUQUE        PTSUNNY   57  38  48 N16G26    29.86F
6HR MIN TEMP:  45; 6HR MAX TEMP:  58;

MONTICELLO *   PTSUNNY   59  34  38 NW23G30   29.89F
OELWEIN *      MOSUNNY   59  32  36 N25G33    29.92F
WATERLOO       SUNNY     61  33  35 NW22G31   29.93F
6HR MIN TEMP:  47; 6HR MAX TEMP:  62;

$$

IAZ064-065-067-068-078-041900-
   EAST CENTRAL IOWA

CITY           SKY/WX    TMP DP  RH WIND       PRES   REMARKS
DAVENPORT      PTSUNNY   58  36  43 N18G30    29.87S
6HR MIN TEMP:  46; 6HR MAX TEMP:  59;

IOWA CITY      MOSUNNY   60  35  39 N13G26    29.92S
6HR MIN TEMP:  50; 6HR MAX TEMP:  60;

MT. PLEASANT * MOSUNNY   61  39  44 NW23G29   29.91S
MUSCATINE *    MOSUNNY   61  36  39 NW18G26   29.90S
QUAD CITIES    PTSUNNY   59  36  42 NW13G25   29.86R
6HR MIN TEMP:  49; 6HR MAX TEMP:  60;

$$

IAZ062-063-075>077-085>089-095>099-041900-
   SOUTHEAST IOWA

CITY           SKY/WX    TMP DP  RH WIND       PRES   REMARKS
BURLINGTON     MOSUNNY   60  40  47 N15G31    29.89R
6HR MIN TEMP:  50; 6HR MAX TEMP:  61;

FAIRFIELD *    MOSUNNY   59  36  41 N18G26    29.92F
FORT MADISON * PTSUNNY   61  41  48 N25       29.89F
KEOKUK *       MOSUNNY   63  41  45 NW17G26   29.89S
OSKALOOSA *      N/A     63  32  31 N16G26    29.95S
OTTUMWA        SUNNY     62  35  36 N22G31    29.94S
6HR MIN TEMP:  50; 6HR MAX TEMP:  62;

WASHINGTON *   MOSUNNY   61  37  41 N18G28    29.93S
$$

ABBREVIATIONS USED IN REMARKS
   TC - TEMPERATURES IN CELSIUS
  WCI - WIND CHILL INDEX
   HX - HEAT INDEX
  VSB - VISIBILITY
$$




USA.gov is the U.S. government's official web portal to all federal, state and local government web resources and services.